EN

Hourly Weather Barra

Today, 28 November, Saturday

Time Temperature Precipitation Wind Pressure Humidity
00:00 +25°C° 0 mm 3 mps 748 mmHg 86%
01:00 +24°C° 0 mm 3 mps 747 mmHg 87%
02:00 +24°C° 0.1 mm 3 mps 747 mmHg 87%
03:00 +24°C° 0.1 mm 3 mps 747 mmHg 87%
04:00 +24°C° 0 mm 3 mps 746 mmHg 87%
05:00 +25°C° 0.2 mm 3 mps 747 mmHg 85%
06:00 +25°C° 0.2 mm 4 mps 747 mmHg 83%
07:00 +26°C° 0.2 mm 4 mps 748 mmHg 80%
08:00 +27°C° 0.3 mm 4 mps 748 mmHg 76%
09:00 +28°C° 0.3 mm 5 mps 748 mmHg 71%
10:00 +29°C° 0.3 mm 5 mps 747 mmHg 66%
11:00 +30°C° 0.1 mm 5 mps 747 mmHg 63%
12:00 +30°C° 0.1 mm 5 mps 747 mmHg 60%
13:00 +32°C° 0.1 mm 5 mps 747 mmHg 56%
14:00 +32°C° 0.1 mm 5 mps 746 mmHg 59%
15:00 +30°C° 0.1 mm 5 mps 746 mmHg 61%
16:00 +30°C° 0.1 mm 5 mps 746 mmHg 63%
17:00 +28°C° 0.5 mm 5 mps 746 mmHg 72%
18:00 +27°C° 0.5 mm 4 mps 746 mmHg 80%
19:00 +25°C° 0.5 mm 4 mps 747 mmHg 89%
20:00 +25°C° 0.6 mm 4 mps 747 mmHg 89%
21:00 +25°C° 0.6 mm 4 mps 747 mmHg 90%
22:00 +24°C° 0.6 mm 3 mps 747 mmHg 91%
23:00 +24°C° 0.5 mm 3 mps 747 mmHg 92%

Tomorrow, 29 November, Sunday

Time Temperature Precipitation Wind Pressure Humidity
00:00 +24°C° 0.5 mm 3 mps 747 mmHg 92%
01:00 +24°C° 0.5 mm 3 mps 747 mmHg 92%
02:00 +24°C° 0.4 mm 3 mps 746 mmHg 92%
03:00 +24°C° 0.4 mm 3 mps 746 mmHg 92%
04:00 +24°C° 0.4 mm 3 mps 746 mmHg 92%
05:00 +25°C° 0.3 mm 3 mps 746 mmHg 90%
06:00 +25°C° 0.3 mm 3 mps 747 mmHg 89%
07:00 +26°C° 0.3 mm 3 mps 748 mmHg 87%
08:00 +26°C° 0.4 mm 3 mps 747 mmHg 85%
09:00 +27°C° 0.4 mm 3 mps 747 mmHg 82%
10:00 +28°C° 0.4 mm 3 mps 747 mmHg 80%
11:00 +28°C° 0.5 mm 3 mps 747 mmHg 77%
12:00 +29°C° 0.5 mm 3 mps 747 mmHg 75%
13:00 +29°C° 0.5 mm 3 mps 746 mmHg 73%
14:00 +29°C° 0.2 mm 3 mps 746 mmHg 73%
15:00 +29°C° 0.2 mm 3 mps 746 mmHg 74%
16:00 +29°C° 0.2 mm 3 mps 745 mmHg 74%
17:00 +28°C° 0.2 mm 3 mps 746 mmHg 79%
18:00 +27°C° 0.2 mm 3 mps 746 mmHg 83%
19:00 +26°C° 0.2 mm 3 mps 747 mmHg 88%
20:00 +26°C° 0.2 mm 3 mps 747 mmHg 89%
21:00 +26°C° 0.2 mm 3 mps 747 mmHg 90%
22:00 +26°C° 0.2 mm 3 mps 748 mmHg 91%
23:00 +25°C° 0.2 mm 2 mps 747 mmHg 92%

Day after tomorrow, 30 November, Monday

Time Temperature Precipitation Wind Pressure Humidity
00:00 +25°C° 0.2 mm 2 mps 747 mmHg 92%
01:00 +25°C° 0.2 mm 2 mps 747 mmHg 93%
02:00 +25°C° 0.1 mm 2 mps 747 mmHg 94%
03:00 +25°C° 0.1 mm 2 mps 746 mmHg 94%
04:00 +25°C° 0.1 mm 2 mps 746 mmHg 94%
05:00 +25°C° 0.2 mm 2 mps 747 mmHg 93%
06:00 +26°C° 0.2 mm 2 mps 747 mmHg 91%
07:00 +27°C° 0.2 mm 2 mps 748 mmHg 89%
08:00 +27°C° 0.1 mm 2 mps 748 mmHg 84%
09:00 +28°C° 0.1 mm 3 mps 748 mmHg 78%
10:00 +29°C° 0.1 mm 3 mps 748 mmHg 73%
11:00 +30°C° 0 mm 3 mps 747 mmHg 70%
12:00 +31°C° 0 mm 3 mps 747 mmHg 66%
13:00 +31°C° 0 mm 3 mps 746 mmHg 63%
14:00 +31°C° 0 mm 3 mps 746 mmHg 66%
15:00 +30°C° 0 mm 3 mps 745 mmHg 68%
16:00 +29°C° 0 mm 3 mps 745 mmHg 71%
17:00 +29°C° 0 mm 3 mps 745 mmHg 75%
18:00 +28°C° 0 mm 3 mps 746 mmHg 78%
19:00 +27°C° 0 mm 2 mps 746 mmHg 82%
20:00 +27°C° 0 mm 2 mps 747 mmHg 83%
21:00 +26°C° 0 mm 2 mps 747 mmHg 84%
22:00 +26°C° 0 mm 2 mps 748 mmHg 85%
23:00 +26°C° 0 mm 2 mps 747 mmHg 85%

1 December, Tuesday

Time Temperature Precipitation Wind Pressure Humidity
00:00 +26°C° 0 mm 2 mps 747 mmHg 86%
01:00 +26°C° 0 mm 2 mps 747 mmHg 86%
02:00 +25°C° 0 mm 2 mps 747 mmHg 86%
03:00 +25°C° 0 mm 2 mps 747 mmHg 86%
04:00 +25°C° 0 mm 1 mps 747 mmHg 86%
05:00 +26°C° 0 mm 1 mps 747 mmHg 82%
06:00 +26°C° 0 mm 1 mps 748 mmHg 79%
07:00 +27°C° 0 mm 1 mps 748 mmHg 76%
08:00 +28°C° 0 mm 2 mps 748 mmHg 69%
09:00 +30°C° 0 mm 2 mps 748 mmHg 63%
10:00 +31°C° 0 mm 2 mps 749 mmHg 57%
11:00 +31°C° 0 mm 2 mps 748 mmHg 56%
12:00 +32°C° 0 mm 2 mps 748 mmHg 55%
13:00 +32°C° 0 mm 2 mps 747 mmHg 54%
14:00 +32°C° 0 mm 2 mps 747 mmHg 55%
15:00 +32°C° 0 mm 2 mps 746 mmHg 56%
16:00 +31°C° 0 mm 2 mps 746 mmHg 57%
17:00 +30°C° 0 mm 2 mps 746 mmHg 65%
18:00 +28°C° 0 mm 2 mps 747 mmHg 72%
19:00 +27°C° 0 mm 2 mps 747 mmHg 80%
20:00 +26°C° 0.1 mm 2 mps 747 mmHg 83%
21:00 +26°C° 0.1 mm 2 mps 748 mmHg 87%
22:00 +26°C° 0.1 mm 2 mps 748 mmHg 91%
23:00 +26°C° 0.2 mm 2 mps 748 mmHg 92%

2 December, Wednesday

Time Temperature Precipitation Wind Pressure Humidity
00:00 +26°C° 0.2 mm 2 mps 748 mmHg 93%
01:00 +26°C° 0.2 mm 3 mps 747 mmHg 93%
02:00 +26°C° 0.2 mm 3 mps 747 mmHg 93%
03:00 +26°C° 0.2 mm 3 mps 747 mmHg 93%
04:00 +26°C° 0.2 mm 3 mps 747 mmHg 93%
05:00 +26°C° 0.3 mm 3 mps 747 mmHg 91%
06:00 +27°C° 0.3 mm 3 mps 748 mmHg 89%
07:00 +27°C° 0.3 mm 3 mps 748 mmHg 87%
08:00 +28°C° 0.3 mm 4 mps 748 mmHg 81%
09:00 +30°C° 0.3 mm 4 mps 749 mmHg 75%
10:00 +32°C° 0.3 mm 4 mps 749 mmHg 69%
11:00 +32°C° 0.1 mm 4 mps 748 mmHg 68%
12:00 +32°C° 0.1 mm 4 mps 748 mmHg 67%
13:00 +32°C° 0.1 mm 4 mps 748 mmHg 66%
14:00 +32°C° 0 mm 4 mps 747 mmHg 66%
15:00 +30°C° 0 mm 4 mps 747 mmHg 67%
16:00 +30°C° 0 mm 4 mps 747 mmHg 67%
17:00 +29°C° 0 mm 3 mps 747 mmHg 73%
18:00 +27°C° 0 mm 3 mps 747 mmHg 78%
19:00 +26°C° 0 mm 2 mps 748 mmHg 84%
20:00 +26°C° 0 mm 2 mps 748 mmHg 84%
21:00 +25°C° 0 mm 3 mps 749 mmHg 85%
22:00 +25°C° 0 mm 3 mps 749 mmHg 85%
23:00 +25°C° 0.1 mm 3 mps 749 mmHg 86%

3 December, Thursday

Time Temperature Precipitation Wind Pressure Humidity
00:00 +24°C° 0.1 mm 2 mps 749 mmHg 87%
01:00 +24°C° 0.1 mm 2 mps 748 mmHg 88%
02:00 +24°C° 0.1 mm 2 mps 748 mmHg 89%
03:00 +24°C° 0.1 mm 2 mps 748 mmHg 90%
04:00 +24°C° 0.1 mm 2 mps 748 mmHg 92%
05:00 +25°C° 0.2 mm 3 mps 748 mmHg 89%
06:00 +26°C° 0.2 mm 3 mps 748 mmHg 87%
07:00 +27°C° 0.2 mm 3 mps 749 mmHg 85%
08:00 +28°C° 0.2 mm 4 mps 749 mmHg 80%
09:00 +29°C° 0.2 mm 4 mps 749 mmHg 75%
10:00 +30°C° 0.2 mm 5 mps 749 mmHg 70%
11:00 +30°C° 0.2 mm 5 mps 749 mmHg 68%
12:00 +32°C° 0.2 mm 5 mps 748 mmHg 65%
13:00 +32°C° 0.2 mm 6 mps 748 mmHg 62%
14:00 +32°C° 0.3 mm 6 mps 747 mmHg 66%
15:00 +30°C° 0.3 mm 5 mps 747 mmHg 69%
16:00 +29°C° 0.3 mm 5 mps 747 mmHg 73%
17:00 +28°C° 0.3 mm 5 mps 747 mmHg 78%
18:00 +27°C° 0.3 mm 5 mps 748 mmHg 82%
19:00 +26°C° 0.3 mm 5 mps 748 mmHg 87%
20:00 +26°C° 0.2 mm 5 mps 748 mmHg 88%
21:00 +25°C° 0.2 mm 5 mps 749 mmHg 89%
22:00 +25°C° 0.2 mm 5 mps 749 mmHg 89%
23:00 +25°C° 0.1 mm 4 mps 749 mmHg 89%
Show more

We Need Your Consent

Meteoprog and our Service Providers may store and access personal data such as cookies, device identifiers or other similar technologies on your device and process such data to personalise content and ads, as well as provide social media features and to analyse the traffic.

  • Store and/or access information on your device

    Cookies, device identifiers or other information can be stored or accessed on your device for the purposes indicated above.

  • Personalised ads and content, ad and content measurement, audience insights, and products development

    Ads and content can be personalised based on a profile. More data can be added to better personalise ads and content. Ad and content performance can be measured. Insights about the audience who saw the ads and content can be derived. Such data can be used to develop or improve user’s experience, systems and software.

By clicking ‘I Agree’ you will allow the use of indicated cookies, device identifiers, web beacons or other similar technologies. Your settings can be changed in the browser on your device.

For certain purposes, legitimate interests may be relied on, rather than consent. You can read more about this in our Privacy and Cookie Policy.